Regional Weather Roundup
Issued by NWS Newport/Morehead, NC

Current Version | Previous Version | Text Only | Print | Product List | Glossary Off
Versions: 1 2 3 4 5 6 7 8 9 10 11 12 13 14 15 16 17 18 19 20 21 22 23 24 25 26 27 28 29 30 31 32 33 34 35 36 37 38 39 40 41 42 43 44 45 46 47 48 49 50
000 ASUS42 KMHX 301125 RWRMHX WEATHER ROUNDUP FOR EASTERN NORTH CAROLINA NATIONAL WEATHER SERVICE NEWPORT/MOREHEAD CITY NC 700 AM EDT SAT MAY 30 2015 NOTE: "FAIR" INDICATES FEW OR NO CLOUDS BELOW 12,000 FEET WITH NO SIGNIFICANT WEATHER AND/OR OBSTRUCTIONS TO VISIBILITY NCZ015>017-031-032-045>047-102-103-301200- NORTH COAST CITY SKY/WX TMP DP RH WIND PRES REMARKS EDENTON SUNNY 69 67 93 CALM 30.23S ELIZABETH CITY MOSUNNY 68 68 100 CALM 30.23R KITTY HAWK N/A 68 66 92 CALM 30.22S MANTEO MOSUNNY 70 67 91 CALM 30.24R $$ NCZ045>047-081-094-103-104-301200- CENTRAL COAST CITY SKY/WX TMP DP RH WIND PRES REMARKS FRISCO MOSUNNY 72 65 78 E3 30.22R SWANQUARTER N/A 68 N/A N/A NE2 30.21R $$ NCZ095-097-098-100-101-301200- SOUTHERN COAST CITY SKY/WX TMP DP RH WIND PRES REMARKS BEAUFORT MOSUNNY 70 67 90 NE3 30.21R CEDAR ISLAND N/A 75 N/A N/A E2 30.27R JACKSONVILLE MOSUNNY 70 66 87 CALM 30.21R PINEY ISLAND SUNNY N/A N/A N/A CALM 30.21R WILMINGTON SUNNY 68 65 90 NE3 30.20R $$ NCZ011>013-027>030-043-044-078>080-089-090>093-098-301200- COASTAL PLAIN CITY SKY/WX TMP DP RH WIND PRES REMARKS AHOSKIE SUNNY 63 63 97 CALM 30.23S CLINTON CLOUDY 69 69 99 CALM 30.22R ELIZABETHTOWN CLOUDY 66 66 100 CALM 30.22R FOG GOLDSBORO PTSUNNY 69 67 94 CALM 30.20R GREENVILLE MOSUNNY 68 68 100 CALM 30.23R HAVELOCK MOSUNNY 68 63 84 CALM 30.22R KENANSVILLE SUNNY 64 63 96 CALM 30.23R FOG KINSTON SUNNY 68 66 94 CALM 30.23R NEW BERN MOSUNNY 69 65 86 CALM 30.23R RICHLANDS MOSUNNY 68 63 83 CALM 30.22R ROCKY MOUNT MOSUNNY 68 67 96 CALM 30.23R WASHINGTON SUNNY 67 65 93 CALM 30.23R WHITEVILLE PTCLDY 67 65 96 CALM 30.20R $$ AMZ130-135-150-152-154-156-158-170-250-252-270-ANZ085-086-088-633-658-670-301200- MARINE OBSERVATIONS STATION/POSITION TIME TEMP WIND PRES WAVE SWELL AIR SEA DIR/SP/G HT/PER HT/PER (UTC) (F) (DEG/KT/KT) (MB) (FT/S) (FT/S) CHESAPEAKE LIGHT 1100 70 160/ 11/ 11 1024.3 64 E VA BEACH 1050 69 66 100/ 4/ 4 1023.5 3/ 9 3/ 9 DUCK 1100 68 58 130/ 4/ 4 1022.7 2 E DUCK 1011 64 N/A 3/ 9 OREGON INLET 1100 73 76 130/ 3/ 4 1023.5 13E OREGON INLT 1100 75 N/A 4/ 9 2/11 HATTERAS CG 1100 76 77 100/ 5/ 6 1022.9 DIAMOND BUOY 1050 76 79 120/ 8/ 10 1023.3 4/ 9 3/ 9 CAPE LOOKOUT 1100 75 100/ 4/ 4 1022.7 BEAUFORT LAB 1100 72 76 50/ 4/ 4 1022.2 27 SE WRIGHTSVLE 1100 75 160/ 4/ 6 N/A 5 SE WRIGHTSVLE 1008 76 77 150/ 8/ 10 1022.1 225 S CAPE HAT 1050 74 74 50/ 10/ 12 1021.3 6/10 7/10 41 SE CHARLESTON 1050 78 79 90/ 10/ 14 1020.4 5/ 8 3/ 8 $$

USA.gov is the U.S. government's official web portal to all federal, state and local government web resources and services.